Location: LDNL
(36.4545°S, 141.6685°E)
Time: 11:30:44
(UTC+10:00)

Tiros 1 despin weight - Pass Details

Date: 09 August 2022
Orbit: 590 x 639 km, 48.2° (Epoch: 23 September)

Event Time Altitude Azimuth Distance (km) Brightness Sun altitude
Rises 05:28:03 0° 237° (WSW) 2,961 - -23.5°
Reaches altitude 10° 05:30:53 10° 220° (SW) 2,053 - -22.9°
Exits shadow 05:33:24 20° 190° (S) 1,517 ? -22.4°
Maximum altitude 05:34:31 21° 170° (S) 1,449 ? -22.2°
Drops below altitude 10° 05:38:08 10° 120° (ESE) 2,049 ? -21.5°
Sets 05:40:57 0° 104° (ESE) 2,952 ? -20.9°
